Location: Unspecified
(45.3712°N, 0.6436°E)
Time: 00:37:13
(UTC+02:00)

ISS - Pass Details

Date: 16 July 2018
Orbit: 402 x 408 km, 51.6° (Epoch: 19 July)

Event Time Altitude Azimuth Distance (km) Brightness Sun altitude
Exits shadow 02:31:53 39° 332° (NNW) 622 -2.6 -22.9°
Maximum altitude 02:32:04 40° 342° (NNW) 616 -2.5 -22.9°
Drops below altitude 10° 02:35:13 10° 54° (NE) 1,471 -0.4 -22.8°
Sets 02:37:23 0° 62° (ENE) 2,335 0.5 -22.8°
